Farquhar Airport

Jump to: basic info | weather | runways | comments

Related pages: nearby airports | nearby navaids | notams | map

Basic information (top)

Codes: FSFA
Location: lon -10.109600, lat 51.176102, elev 10 ft / 3 m msl
Status: small_airport

Weather (top)

Current conditions for Prince Said Ibrahim International Airport 474nm (878km) W (rec'd 2014/07/30 18:00Z):

FMCH 301800Z 11010KT 9999 FEW022 25/21 Q1020 NOSIG

Airport forecast for Prince Said Ibrahim International Airport 474nm (878km) W (rec'd 2014/07/30 06:00Z):

TAF FMCH 300500Z 3006/3112 20012KT 9999 FEW020TCU BKN030 PROB40 
      TEMPO 3009/3015 4000 SHRA 
      BECMG 3018/3020 12005KT 
      BECMG 3105/3107 22010KT

Runways (top)

13/31: 3,035 x 75 ft (925 x 23 m) — paved — not lighted

Latest comments (top)

No comments yet for Farquhar Airport

More... (top)

See also NOTAMs and nearby airports and navaids, or visit the Farquhar Airport page at the main OurAirports website..